Location: Cisewo
(53.3833°N, 14.9000°E)
Time: 11:57:41
(UTC+00:00)

USA 229 - Pass Details

Date: 31 July 2021
Orbit: 956 x 1256 km, 63.5° (Epoch: 08 August)

Event Time Altitude Azimuth Distance (km) Brightness Sun altitude
Rises 22:35:32 0° 312° (NW) 3,966 7.5 -18.3°
Reaches altitude 10° 22:38:23 10° 304° (NW) 3,048 6.6 -18.3°
Maximum altitude 22:44:52 35° 242° (WSW) 1,822 4.7 -18.4°
Enters shadow 22:48:14 25° 199° (SSW) 2,255 4.9 -18.5°
